Preview of NWS' New Version of Forecast
This preview is not operational and should not be used for support decisions.

Regional Weather Roundup (RWR)

Issued by National Weather Service (NWS)

                            
000
ASUS43 KDTX 210201
RWRMI 
MICHIGAN HOURLY REGIONAL WEATHER ROUNDUP
NATIONAL WEATHER SERVICE DETROIT/PONTIAC MI
900 PM EST WED FEB 20 2019

NOTE: "FAIR" INDICATES FEW OR NO CLOUDS BELOW 12,000 FEET WITH NO
SIGNIFICANT WEATHER AND/OR OBSTRUCTION TO VISIBILITY.

MIZ047>049-052>055-059>063-066>070-074>076-081>083-210300-
SOUTHEAST LOWER MICHIGAN
  
CITY           SKY/WX    TMP DP  RH WIND       PRES   REMARKS
ADRIAN         CLOUDY    33  31  92 W6        29.76S FOG     WCI  28  
ALMA           CLOUDY    33  32  97 S8        29.69S FOG     WCI  25  
ANN ARBOR      CLOUDY    33  32  96 S6        29.74F FOG     WCI  28  
BAD AXE        CLOUDY    32  31  96 S14       29.68F WCI  22          
CARO           CLOUDY    33  32  99 S6        29.69S WCI  27          
DETROIT CITY   CLOUDY    34  33  96 CALM      29.74S FOG              
DETROIT        FOG       33  31  92 SW6       29.75R VSB 1   WCI  28  
FLINT          CLOUDY    34  32  92 S9        29.72R WCI  27          
GROSSE ILE     CLOUDY    34  33  96 S6        29.74S FOG     WCI  29  
HILLSDALE      CLOUDY    35  33  92 SW12G17   29.73R FOG     WCI  27  
HOWELL         CLOUDY    34  33  95 S8        29.71S WCI  27          

CITY           SKY/WX    TMP DP  RH WIND       PRES   REMARKS
JACKSON        CLOUDY    35  35 100 S13G22    29.73R WCI  26          
LAMBERTVILLE   CLOUDY    38  38  98 SW9       29.76S WCI  32          
LANSING        CLOUDY    34  34 100 SW13      29.72R FOG     WCI  25  
LAPEER         CLOUDY    34  32  93 S6        29.71F WCI  29          
MASON          CLOUDY    35  34  96 SW6       29.72R FOG     WCI  30  
MONROE         CLOUDY    34  33  96 SW6       29.74F FOG     WCI  29  
MT. CLEMENS    LGT RAIN  33  33 100 S6        29.73F FOG     WCI  28  
PONTIAC        DRIZZLE   33  33 100 SE6       29.70F FOG     WCI  28  
PORT HOPE        N/A     33  30  88 S12G21    29.67F WCI  24          
PORT HURON     CLOUDY    34  32  93 S8        29.74S FOG     WCI  27  
TRI CITIES     CLOUDY    33  32  96 S9        29.69F FOG     WCI  25  
MIDLAND        CLOUDY    33  31  94 S6        29.68S FOG     WCI  27  
TROY           CLOUDY    33  31  93 CALM      29.75F FOG              
SAGINAW HB     CLOUDY    32  32 100 S9        29.69S WCI  24          
$$
MIZ043>046-050>051-056>058-064>065-071>073-077>080-210300-
SOUTHWEST LOWER MICHIGAN
  
CITY           SKY/WX    TMP DP  RH WIND       PRES   REMARKS
BATTLE CREEK   CLOUDY    36  34  92 W16G25    29.74R WCI  26          
BENTON HARBOR  CLOUDY    36  33  89 SW15G28   29.78R WCI  27          
BIG RAPIDS     LGT SNOW  31  30  97 CALM      29.65S                  
COLDWATER      CLOUDY    38  38 100 W18G24    29.76R WCI  29          
FREMONT        CLOUDY    36  35  97 SW13      29.67R WCI  27          
HOLLAND        CLOUDY    36  33  89 W20       29.73R WCI  25          
GRAND RAPIDS   CLOUDY    36  33  89 SW20      29.71R WCI  25          
IONIA          LGT SNOW  35  33  95 SW12      29.70R WCI  26          
KALAMAZOO      CLOUDY    38  34  85 W16G24    29.75R WCI  29          
LUDINGTON      CLOUDY    35  33  92 SW15      29.65S WCI  25          
MOUNT PLEASANT CLOUDY    33  31  94 S6        29.67F FOG     WCI  27  
MUSKEGON       CLOUDY    36  32  85 SW14      29.71R WCI  27          
SOUTH HAVEN    CLOUDY    37  34  89 SW15G25   29.76R WCI  28          
$$
MIZ016>042-210300-
NORTHERN LOWER MICHIGAN
  
CITY           SKY/WX    TMP DP  RH WIND       PRES   REMARKS
ALPENA         LGT SNOW  29  27  92 SE8       29.68F FOG     WCI  21  
BEAVER ISLAND  LGT SNOW  26  24  95 E10       29.64F WCI  16          
BELLAIRE       FLURRIES  29  25  83 CALM      29.64F                  
CADILLAC       LGT SNOW  27  24  89 S6        29.61F WCI  20          
CHARLEVOIX     LGT SNOW  27  25  93 E6        29.67F WCI  20          
FRANKFORT      CLOUDY    32  29  88 S10G17    29.62S WCI  23          
GAYLORD        LGT SNOW  24  21  88 SE8       29.62F FOG     WCI  15  
HARBOR SPRINGS LGT SNOW  26  25  96 E7        29.65F WCI  18          
HOUGHTON LAKE  LGT SNOW  27  25  92 SE6       29.64F FOG     WCI  20  
MANISTEE       MIX PCPN  31  29  92 S6        29.64S WCI  25          
OSCODA         CLOUDY    31  31 100 S6        29.67F FOG     WCI  25  
PELLSTON       LGT SNOW  26  23  88 SE7       29.66F FOG     WCI  18  
ROGERS CITY    LGT SNOW  28  27  94 SE5       29.68F VSB 1   WCI  23  
TRAVERSE CITY  LGT SNOW  29  24  82 VRB3      29.62F                  
$$
MIZ007>008-015-210300-
EASTERN UPPER MICHIGAN
  
CITY           SKY/WX    TMP DP  RH WIND       PRES   REMARKS
KINROSS        LGT SNOW  20  18  92 E16       29.68F FOG     WCI   6  
MACKINAC ISLAN LGT SNOW  28  28 100 E17G24    29.66F WCI  15          
NEWBERRY       LGT SNOW  20  18  92 MISG      29.64F                  
S. S. MARIE    SNOW      22  19  89 E9G18     29.69F VSB 1/2 WCI  12  
MUNISING         N/A     24  19  81 VRB7G20   29.61F WCI  16          
$$
MIZ004>006-011>014-085-210300-
CENTRAL UPPER MICHIGAN
  
CITY           SKY/WX    TMP DP  RH WIND       PRES   REMARKS
MANISTIQUE     LGT SNOW  24  19  81 E14       29.62F WCI  12          
ESCANABA       LGT SNOW  27  25  92 E10       29.60F FOG     WCI  17  
MENOMINEE      MIX PCPN  28  27  96 CALM      29.59F FOG              
SAWYER-GWINN   LGT SNOW  23  21  93 SE6       29.57F WCI  16          
$$
MIZ001>003-009>011-084-210300-
WESTERN UPPER MICHIGAN
  
CITY           SKY/WX    TMP DP  RH WIND       PRES   REMARKS
IRON MOUNTAIN  CLOUDY    23  19  85 CALM      29.56F FOG              
HOUGHTON       LGT SNOW  25  21  85 E14       29.60F VSB 1   WCI  13  
COPPER HARBOR    N/A     27  24  89 S8G21     29.64F WCI  19          
IRONWOOD       LGT SNOW  22  20  92 CALM      29.57F FOG              
$$

ABBREVIATIONS USED IN REMARKS
   TC - TEMPERATURE IN CELSIUS
  WCI - WIND CHILL INDEX
   HX - HEAT INDEX
  VSB - VISIBILITY